Radiation Dose at Monitoring Post of Fukushima Daini Nuclear Power Station
Date,Time,MP-1(microSv/h),MP-2(microSv/h),MP-3(microSv/h),MP-4(microSv/h),MP-5(microSv/h),MP-6(microSv/h),MP-7(microSv/h),Wind Direction,Wind Velocity(m/s),Rain
2012/12/22,00:00,1.1,0.7,1.1,1.0,1.0,0.5,0.4,north,2.0,Yes
2012/12/22,00:10,1.1,0.7,1.1,1.0,1.0,0.5,0.4,north,2.3,Yes
2012/12/22,00:20,1.1,0.7,1.1,1.0,1.0,0.5,0.4,north,3.1,Yes
2012/12/22,00:30,1.1,0.7,1.1,1.0,1.0,0.5,0.4,north,4.5,No
2012/12/22,00:40,1.1,0.7,1.1,1.0,1.0,0.5,0.4,north,3.9,No
2012/12/22,00:50,1.1,0.7,1.1,1.0,1.0,0.5,0.4,north,2.8,No
2012/12/22,01:00,1.1,0.7,1.1,1.0,1.0,0.5,0.4,north,2.2,No
2012/12/22,01:10,1.1,0.7,1.1,1.0,1.0,0.5,0.4,north,3.0,No
2012/12/22,01:20,1.1,0.7,1.1,1.0,1.0,0.5,0.4,north,3.4,No
2012/12/22,01:30,1.1,0.7,1.1,1.0,1.0,0.5,0.4,north-northeast,2.3,No
2012/12/22,01:40,1.1,0.7,1.1,1.0,1.0,0.5,0.4,north,1.8,No
2012/12/22,01:50,1.1,0.7,1.1,1.0,1.0,0.5,0.4,north-northwest,2.5,No
2012/12/22,02:00,1.1,0.7,1.1,1.0,1.0,0.5,0.4,north-northwest,2.4,No
2012/12/22,02:10,1.1,0.7,1.1,1.0,1.0,0.5,0.4,north-northwest,2.4,No
2012/12/22,02:20,1.1,0.7,1.1,1.0,1.0,0.5,0.4,north,2.2,No
2012/12/22,02:30,1.1,0.7,1.1,1.0,1.0,0.5,0.4,northwest,1.4,No
2012/12/22,02:40,1.1,0.7,1.1,1.0,1.0,0.5,0.4,north,1.4,No
2012/12/22,02:50,1.1,0.7,1.1,1.0,1.0,0.5,0.4,north,1.4,No
2012/12/22,03:00,1.1,0.7,1.1,1.0,1.0,0.5,0.4,north,1.1,No
2012/12/22,03:10,1.1,0.7,1.1,1.0,1.0,0.5,0.4,northeast,0.5,No
2012/12/22,03:20,1.1,0.7,1.1,1.0,1.0,0.5,0.4,north-northwest,0.6,No
2012/12/22,03:30,1.1,0.7,1.1,1.0,1.0,0.5,0.4,north,1.1,No
2012/12/22,03:40,1.1,0.7,1.1,1.0,1.0,0.5,0.4,northwest,0.6,No
2012/12/22,03:50,1.1,0.7,1.1,1.0,1.0,0.5,0.4,north,1.3,No
2012/12/22,04:00,1.1,0.7,1.1,1.0,1.0,0.5,0.4,north-northwest,1.7,No
2012/12/22,04:10,1.1,0.7,1.1,1.0,1.0,0.5,0.4,north-northwest,2.2,No
2012/12/22,04:20,1.1,0.7,1.1,1.0,1.0,0.5,0.4,north,2.0,No
2012/12/22,04:30,1.1,0.7,1.1,1.0,1.0,0.5,0.4,north,1.8,No
2012/12/22,04:40,1.1,0.7,1.1,1.0,1.0,0.5,0.4,north-northeast,2.5,No
2012/12/22,04:50,1.1,0.7,1.1,1.0,1.0,0.5,0.4,north-northeast,2.2,No
2012/12/22,05:00,1.1,0.7,1.1,1.0,1.0,0.5,0.4,north,1.4,No
2012/12/22,05:10,1.1,0.7,1.1,1.0,1.0,0.5,0.4,north-northwest,1.0,No
2012/12/22,05:20,1.1,0.7,1.1,1.0,1.0,0.5,0.4,-,CALM,No
2012/12/22,05:30,1.1,0.7,1.1,1.0,1.0,0.5,0.4,southwest,1.3,No
2012/12/22,05:40,1.1,0.7,1.1,1.0,1.0,0.5,0.4,southwest,1.4,No
2012/12/22,05:50,1.1,0.7,1.1,1.0,1.0,0.5,0.4,southwest,1.9,No
2012/12/22,06:00,1.1,0.7,1.1,1.0,1.0,0.5,0.4,southwest,1.9,No
2012/12/22,06:10,1.1,0.7,1.1,1.0,1.0,0.5,0.4,south-southwest,2.2,No
2012/12/22,06:20,1.1,0.7,1.1,1.0,1.0,0.5,0.4,south,2.2,No
2012/12/22,06:30,1.1,0.7,1.1,1.0,1.0,0.5,0.4,south,0.7,No
2012/12/22,06:40,1.1,0.7,1.1,1.0,1.0,0.5,0.4,south,0.7,Yes
2012/12/22,06:50,1.1,0.7,1.1,1.0,1.0,0.5,0.4,south,2.2,Yes
2012/12/22,07:00,1.1,0.7,1.1,1.0,1.0,0.5,0.4,south,3.2,Yes
2012/12/22,07:10,1.1,0.7,1.1,1.0,1.0,0.5,0.4,south,3.8,Yes
2012/12/22,07:20,1.1,0.7,1.1,1.0,1.0,0.5,0.4,south,4.0,Yes
2012/12/22,07:30,1.1,0.7,1.1,1.0,1.0,0.5,0.4,south,3.6,Yes
2012/12/22,07:40,1.1,0.7,1.1,1.0,1.0,0.5,0.4,south,3.8,Yes
2012/12/22,07:50,1.1,0.7,1.1,1.0,1.0,0.5,0.4,south,3.9,Yes
2012/12/22,08:00,1.1,0.7,1.1,1.0,1.0,0.5,0.4,south,3.2,Yes
2012/12/22,08:10,1.1,0.7,1.1,1.0,1.0,0.5,0.4,south,4.1,Yes
2012/12/22,08:20,1.1,0.7,1.1,1.0,1.0,0.5,0.4,south,3.4,Yes
2012/12/22,08:30,1.1,0.7,1.1,1.0,1.0,0.5,0.4,south-southwest,4.2,Yes
2012/12/22,08:40,1.1,0.7,1.1,1.0,1.0,0.5,0.4,south-southwest,2.8,Yes
2012/12/22,08:50,1.1,0.7,1.1,1.0,1.0,0.5,0.4,south-southwest,3.1,Yes
2012/12/22,09:00,1.1,0.7,1.1,1.0,1.0,0.5,0.4,south,4.2,Yes
2012/12/22,09:10,1.1,0.7,1.1,1.0,1.0,0.5,0.4,south-southwest,3.4,Yes
2012/12/22,09:20,1.1,0.7,1.1,1.0,1.0,0.5,0.4,south-southwest,3.2,Yes
2012/12/22,09:30,1.1,0.7,1.1,1.0,1.0,0.5,0.4,south-southwest,2.0,Yes
2012/12/22,09:40,1.1,0.7,1.1,1.0,1.0,0.5,0.4,south-southwest,2.8,Yes
2012/12/22,09:50,1.1,0.7,1.1,1.0,1.0,0.5,0.4,south-southwest,3.1,Yes
2012/12/22,10:00,1.1,0.7,1.1,1.0,1.0,0.5,0.4,west,0.8,Yes
2012/12/22,10:10,1.1,0.7,1.1,1.0,1.0,0.5,0.4,north-northwest,2.1,Yes
2012/12/22,10:20,1.1,0.7,1.1,1.0,1.0,0.5,0.4,north-northwest,2.7,Yes
2012/12/22,10:30,1.1,0.7,1.1,1.0,1.0,0.5,0.4,north-northwest,4.6,Yes
2012/12/22,10:40,1.1,0.7,1.1,1.0,1.0,0.5,0.4,north,6.0,Yes
2012/12/22,10:50,1.1,0.7,1.1,1.0,1.0,0.5,0.4,north,5.5,Yes
2012/12/22,11:00,1.1,0.7,1.1,1.0,1.0,0.5,0.4,north,5.6,Yes
2012/12/22,11:10,1.1,0.7,1.1,1.0,1.0,0.5,0.4,north,6.6,Yes
2012/12/22,11:20,1.1,0.7,1.1,1.0,1.0,0.5,0.4,north,6.3,Yes
2012/12/22,11:30,1.1,0.7,1.1,1.0,1.0,0.5,0.4,north-northwest,5.6,Yes
2012/12/22,11:40,1.1,0.7,1.1,1.0,1.0,0.5,0.4,north,6.4,Yes
2012/12/22,11:50,1.1,0.7,1.1,1.0,1.0,0.5,0.4,north,8.3,Yes
2012/12/22,12:00,1.1,0.7,1.1,1.0,1.0,0.5,0.4,north,6.7,Yes
2012/12/22,12:10,1.1,0.7,1.1,1.0,1.0,0.5,0.4,north,6.2,Yes
2012/12/22,12:20,1.1,0.7,1.1,1.0,1.0,0.5,0.4,north,6.9,Yes
2012/12/22,12:30,1.1,0.7,1.1,1.0,1.0,0.5,0.4,north,7.7,Yes
2012/12/22,12:40,1.1,0.7,1.1,1.0,1.0,0.5,0.4,north,8.1,Yes
2012/12/22,12:50,1.1,0.7,1.1,1.0,1.0,0.5,0.4,north,7.8,Yes
2012/12/22,13:00,1.1,0.7,1.1,1.0,1.0,0.5,0.4,north-northwest,7.5,Yes
2012/12/22,13:10,1.1,0.7,1.1,1.0,1.0,0.5,0.4,north,8.3,Yes
2012/12/22,13:20,1.1,0.7,1.1,1.0,1.0,0.5,0.4,north,8.0,Yes
2012/12/22,13:30,1.1,0.7,1.1,1.0,1.0,0.5,0.4,north,9.2,Yes
2012/12/22,13:40,1.1,0.7,1.1,1.0,1.0,0.5,0.4,north,9.2,Yes
2012/12/22,13:50,1.1,0.7,1.1,1.0,1.0,0.5,0.4,north,9.5,Yes
2012/12/22,14:00,1.1,0.7,1.1,1.0,1.0,0.5,0.4,north,9.0,Yes
2012/12/22,14:10,1.1,0.7,1.1,1.0,1.0,0.5,0.4,north,9.5,Yes
2012/12/22,14:20,1.1,0.7,1.1,1.0,1.0,0.5,0.4,north,10.5,Yes
2012/12/22,14:30,1.1,0.7,1.1,1.0,1.0,0.5,0.4,north-northwest,9.7,Yes
2012/12/22,14:40,1.1,0.7,1.1,1.0,1.0,0.5,0.4,north,8.1,Yes
2012/12/22,14:50,1.1,0.7,1.1,1.0,1.0,0.5,0.4,north,9.2,Yes
2012/12/22,15:00,1.1,0.7,1.1,1.0,1.0,0.5,0.4,north,10.4,Yes
2012/12/22,15:10,1.1,0.7,1.1,1.0,1.0,0.5,0.4,north,9.1,Yes
2012/12/22,15:20,1.1,0.7,1.1,1.0,1.0,0.5,0.4,north,9.5,Yes
2012/12/22,15:30,1.1,0.7,1.1,1.0,1.0,0.5,0.4,north,8.4,Yes
2012/12/22,15:40,1.1,0.7,1.1,1.0,1.0,0.5,0.4,north,7.2,No
2012/12/22,15:50,1.1,0.7,1.1,1.0,1.0,0.5,0.4,north,6.4,No
2012/12/22,16:00,1.1,0.7,1.1,1.0,1.0,0.5,0.4,north,7.7,No
2012/12/22,16:10,1.1,0.7,1.1,1.0,1.0,0.5,0.4,north,10.0,No
2012/12/22,16:20,1.1,0.7,1.1,1.0,1.0,0.5,0.4,north,9.0,No
2012/12/22,16:30,1.1,0.7,1.1,1.0,1.0,0.5,0.4,north,11.7,No
2012/12/22,16:40,1.1,0.7,1.1,1.0,1.0,0.5,0.4,north,10.8,No
2012/12/22,16:50,1.1,0.7,1.1,1.0,1.0,0.5,0.4,north,10.5,No
2012/12/22,17:00,1.1,0.7,1.1,1.0,1.0,0.5,0.4,north-northwest,9.9,No
2012/12/22,17:10,1.1,0.7,1.1,1.0,1.0,0.5,0.4,north,10.6,No
2012/12/22,17:20,1.1,0.7,1.1,1.0,1.0,0.5,0.4,north,10.4,No
2012/12/22,17:30,1.1,0.7,1.1,1.0,1.0,0.5,0.4,north,11.0,No
2012/12/22,17:40,1.1,0.7,1.1,1.0,1.0,0.5,0.4,north,10.1,No
2012/12/22,17:50,1.1,0.7,1.1,1.0,1.0,0.5,0.4,north,9.2,No
2012/12/22,18:00,1.1,0.7,1.1,1.0,1.0,0.5,0.4,north,8.7,No
2012/12/22,18:10,1.1,0.7,1.1,1.0,1.0,0.5,0.4,north,8.1,No
2012/12/22,18:20,1.1,0.7,1.1,1.0,1.0,0.5,0.4,north-northwest,9.2,No
2012/12/22,18:30,1.1,0.7,1.1,1.0,1.0,0.5,0.4,north-northwest,8.3,No
2012/12/22,18:40,1.1,0.7,1.1,1.0,1.0,0.5,0.4,north,9.0,No
2012/12/22,18:50,1.1,0.7,1.1,1.0,1.0,0.5,0.4,north,9.0,No
2012/12/22,19:00,1.1,0.7,1.1,1.0,1.0,0.5,0.4,north,7.3,No
2012/12/22,19:10,1.1,0.7,1.1,1.0,1.0,0.5,0.4,north,9.8,No
2012/12/22,19:20,1.1,0.7,1.1,1.0,1.0,0.5,0.4,north,7.7,No
2012/12/22,19:30,1.1,0.7,1.1,1.0,1.0,0.5,0.4,north,2.6,No
2012/12/22,19:40,1.1,0.7,1.1,1.0,1.0,0.5,0.4,north-northwest,3.0,No
2012/12/22,19:50,1.1,0.7,1.1,1.0,1.0,0.5,0.4,northwest,5.2,No
2012/12/22,20:00,1.1,0.7,1.1,1.0,1.0,0.5,0.4,northwest,7.2,No
2012/12/22,20:10,1.1,0.7,1.1,1.0,1.0,0.5,0.4,northwest,8.4,No
2012/12/22,20:20,1.1,0.7,1.1,1.0,1.0,0.5,0.4,northwest,7.3,No
2012/12/22,20:30,1.1,0.7,1.1,1.0,1.0,0.5,0.4,northwest,7.2,No
2012/12/22,20:40,1.1,0.7,1.1,1.0,1.0,0.5,0.4,northwest,7.7,No
2012/12/22,20:50,1.1,0.7,1.1,1.0,1.0,0.5,0.4,northwest,9.1,No
2012/12/22,21:00,1.1,0.7,1.1,1.0,1.0,0.5,0.4,northwest,10.9,No
2012/12/22,21:10,1.1,0.7,1.1,1.0,1.0,0.5,0.4,north-northwest,11.5,No
2012/12/22,21:20,1.1,0.7,1.1,1.0,1.0,0.5,0.4,northwest,9.2,No
2012/12/22,21:30,1.1,0.7,1.1,1.0,1.0,0.5,0.4,northwest,7.5,No
2012/12/22,21:40,1.1,0.7,1.1,1.0,1.0,0.5,0.4,northwest,8.3,No
2012/12/22,21:50,1.1,0.7,1.1,1.0,1.0,0.5,0.4,northwest,8.6,No
2012/12/22,22:00,1.1,0.7,1.1,1.0,1.0,0.5,0.4,northwest,8.6,No
2012/12/22,22:10,1.1,0.7,1.1,1.0,1.0,0.5,0.4,northwest,8.3,No
2012/12/22,22:20,1.1,0.7,1.1,1.0,1.0,0.5,0.4,northwest,8.6,No
2012/12/22,22:30,1.1,0.7,1.1,1.0,1.0,0.5,0.4,northwest,7.5,No
2012/12/22,22:40,1.1,0.7,1.1,1.0,1.0,0.5,0.4,northwest,7.7,No
2012/12/22,22:50,1.1,0.7,1.1,1.0,1.0,0.5,0.4,north-northwest,9.8,No
2012/12/22,23:00,1.1,0.7,1.1,1.0,1.0,0.5,0.4,north-northwest,10.8,No
2012/12/22,23:10,1.1,0.7,1.1,1.0,1.0,0.5,0.4,north,11.2,No
2012/12/22,23:20,1.1,0.7,1.1,1.0,1.0,0.5,0.4,north,10.6,No
2012/12/22,23:30,1.1,0.7,1.1,1.0,1.0,0.5,0.4,north,10.9,No
2012/12/22,23:40,1.1,0.7,1.1,1.0,1.0,0.5,0.4,north,9.9,No
2012/12/22,23:50,1.1,0.7,1.1,1.0,1.0,0.5,0.4,north,8.0,No
